Temperature
24 22 22 23 23 24 24 24 23 24 24 23 23 22 21 20 20 20 20 19 20 20 20 20 20 20 20 20 20 20 20 19 19 19 19 19 19 19 19 19 18 18 18 18
23 23 24 24 24 24 24 24 23 24 24 24 23 22 21 20 20 20 20 20 20 20 20 20 20 20 20 20 20 20 20 19 19 19 19 19 19 19 19 19 18 18 19 19
24 24 25 25 24 24 24 24 24 24 23 23 23 22 22 21 21 21 21 21 20 20 20 21 20 20 20 20 20 20 20 20 19 19 19 19 18 18 18 19 19 19 19 19
24 24 25 25 25 24 24 24 24 24 22 21 23 21 22 21 20 20 21 21 21 21 21 21 21 21 21 21 20 20 20 20 19 19 19 19 19 19 19 19 19 19 18 18
24 25 25 25 25 25 24 24 23 23 22 21 21 21 21 20 20 20 21 21 21 22 22 22 22 22 21 21 21 20 20 20 20 19 19 19 19 19 19 19 19 19 19 19
24 25 25 25 25 25 24 22 21 19 19 21 21 21 21 20 20 21 21 21 22 22 22 22 22 22 22 21 21 20 20 20 20 20 19 19 19 19 19 19 19 19 19 19
24 24 24 25 25 24 23 21 20 21 19 20 20 20 20 21 21 21 21 22 22 22 22 22 22 22 22 21 21 21 20 20 20 20 19 19 19 19 19 19 19 19 19 19
23 23 24 24 24 23 22 21 20 21 20 20 20 20 21 21 21 22 22 22 22 22 22 23 23 23 22 22 22 21 21 21 20 20 20 19 19 19 19 19 19 19 19 19
21 22 24 25 24 23 22 20 20 19 19 20 19 20 21 21 21 21 21 21 22 22 23 23 23 23 23 22 22 22 21 21 21 20 20 20 19 19 19 19 19 19 19 19
21 23 23 24 24 23 22 19 17 18 19 20 21 20 20 21 21 20 20 20 21 23 23 23 23 23 23 22 22 22 21 21 21 20 20 20 20 19 19 19 19 19 19 19
21 22 22 23 24 23 22 20 17 16 17 18 20 20 21 20 20 20 20 21 21 22 23 23 23 23 23 22 22 22 21 21 21 20 20 20 20 20 19 19 19 19 19 19
19 18 20 21 22 22 22 20 18 19 18 16 18 20 21 20 20 20 20 21 21 22 22 22 22 22 22 22 22 22 21 21 21 21 20 20 20 20 20 20 19 19 19 18
19 18 19 21 21 21 21 20 18 16 15 15 18 20 20 19 19 20 20 20 21 21 22 22 22 22 22 22 22 22 21 21 21 20 20 20 20 20 20 20 19 19 19 18
18 17 19 20 20 20 21 21 19 18 17 17 18 19 19 19 18 18 19 20 20 21 21 21 21 21 21 22 21 21 21 21 21 20 20 20 20 20 20 19 19 19 18 18
18 18 19 19 20 20 21 21 20 19 18 18 19 18 19 18 18 18 19 19 20 20 21 21 21 21 21 21 21 21 21 21 20 20 20 20 20 20 19 19 19 19 18 18
15 17 19 19 20 20 20 20 20 20 20 19 19 19 18 18 18 18 18 18 19 19 20 20 20 20 21 21 21 21 21 20 20 20 20 20 19 19 19 19 18 18 18 18
14 16 17 17 18 20 19 19 19 19 19 19 19 18 17 17 17 18 18 18 19 19 20 20 20 20 20 20 20 20 20 20 20 20 20 19 19 19 19 18 18 18 18 18
14 14 13 15 18 19 18 19 19 18 18 17 17 17 16 16 17 18 18 18 19 19 20 20 20 20 20 20 20 20 20 20 20 20 19 19 19 19 18 18 18 18 17 17
13 13 13 14 16 17 18 18 18 18 17 17 16 16 16 17 17 17 19 19 19 19 20 20 20 20 20 20 19 19 19 19 19 19 19 19 18 18 18 18 18 17 17 17
11 12 13 13 16 16 17 18 18 17 17 16 16 15 16 16 15 16 18 19 19 19 19 19 19 19 19 19 19 19 18 18 18 18 18 18 18 18 18 17 17 17 17 17
13 12 13 13 15 15 16 17 18 17 17 16 16 16 16 16 16 17 18 18 18 18 19 19 19 19 19 18 18 18 18 18 18 18 17 17 17 17 17 17 17 17 16 16
13 13 12 12 14 15 16 16 16 15 16 16 16 16 16 17 17 17 18 18 18 18 18 18 18 18 18 18 17 17 17 17 17 17 17 16 16 16 16 16 16 16 16 16
11 12 11 12 13 14 15 15 16 17 16 17 17 16 16 16 17 17 17 17 17 17 18 18 17 17 17 17 17 17 17 16 16 16 16 16 16 16 16 16 15 15 15 15
12 11 11 12 13 14 15 16 17 17 17 17 17 17 16 16 16 16 16 16 16 16 16 16 16 16 16 16 16 16 16 16 15 15 15 15 15 15 15 15 15 15 15 15
12 12 11 11 12 14 15 16 16 16 16 16 16 16 16 16 16 16 16 16 16 16 16 16 15 16 16 16 16 15 15 15 15 15 15 15 15 15 15 15 14 14 14 14
10 11 11 12 13 12 14 16 16 16 16 16 16 15 15 16 15 15 15 15 15 15 15 15 15 15 15 15 15 15 15 15 14 14 15 14 14 14 14 14 14 14 14 14
Wind_Speed
3 5 2 5 6 5 4 3 3 5 2 3 3 2 5 9 9 9 9 10 10 11 9 9 9 10 9 8 8 8 8 7 6 4 3 3 3 2 2 4 5 6 6 6
5 1 6 4 3 3 3 1 3 3 1 2 1 2 3 9 12 11 11 11 11 10 8 9 10 10 10 10 10 9 9 8 7 6 4 3 3 2 2 2 3 5 5 6
4 5 2 3 2 2 1 4 4 2 3 4 3 4 2 4 7 7 8 9 10 12 11 11 11 12 11 11 12 11 10 9 8 6 4 2 2 1 0 1 2 3 4 5
3 4 1 1 1 4 3 5 4 2 3 2 2 2 6 4 5 9 10 11 12 12 11 11 11 11 12 12 10 9 9 9 8 7 7 7 5 5 4 3 2 2 4 5
4 2 2 2 4 5 4 1 3 2 4 2 2 2 7 1 5 10 12 13 13 13 13 12 13 13 12 11 10 9 8 9 8 8 8 7 6 5 3 2 3 3 3 4
4 2 3 4 2 3 4 6 7 6 5 1 3 3 6 4 7 7 10 12 12 12 12 11 11 10 10 10 10 9 9 9 8 9 8 8 8 6 4 4 4 3 3 3
4 3 2 2 1 2 5 6 4 5 4 5 3 3 8 7 6 7 8 9 9 9 10 10 11 12 12 12 12 11 11 10 9 9 9 9 8 8 7 6 6 5 3 3
2 5 3 3 5 5 4 8 8 5 5 5 2 5 7 6 5 4 4 4 5 6 8 10 12 13 13 13 13 12 12 11 10 10 9 8 7 6 6 6 5 5 5 5
6 6 4 2 3 8 6 4 6 7 3 1 5 7 8 3 4 2 0 2 4 5 7 9 10 11 11 12 13 13 13 12 11 11 9 8 8 7 7 6 6 5 4 5
8 4 5 2 4 4 5 8 6 6 5 3 5 5 5 7 6 3 1 3 4 4 5 6 8 9 10 11 11 11 12 12 11 11 10 10 9 8 7 6 6 6 5 5
5 4 4 3 2 3 4 5 6 5 5 6 4 7 5 8 6 4 4 4 4 4 5 5 5 7 8 8 9 10 10 10 10 11 10 9 8 8 7 7 7 6 5 5
4 5 2 5 4 1 4 6 7 5 4 4 4 7 5 5 4 3 3 3 2 2 2 2 2 3 5 7 8 9 10 10 10 10 9 9 8 8 9 9 8 7 6 6
5 6 2 6 6 4 3 3 4 6 5 5 5 7 4 4 2 1 2 2 1 1 1 1 2 2 4 5 6 7 9 9 8 8 9 9 9 9 10 9 8 7 6 6
6 5 6 8 7 3 1 1 4 5 4 5 7 7 7 6 4 4 2 2 1 1 2 3 2 1 2 3 4 5 7 7 7 8 9 10 10 10 9 7 6 6 6 6
5 4 3 3 3 3 2 3 3 5 7 7 7 6 8 7 5 4 2 0 2 1 2 2 1 1 1 1 1 2 4 4 5 7 8 10 8 7 6 6 6 6 6 7
4 4 2 1 1 1 1 2 3 3 3 4 3 6 5 3 0 0 1 2 2 1 1 1 1 0 1 1 1 2 2 3 3 5 7 5 5 6 6 7 7 6 6 6
2 5 4 2 3 2 2 4 3 2 1 3 5 5 3 2 2 3 3 2 2 2 1 1 2 3 2 2 2 2 2 2 3 4 4 4 4 5 6 7 6 6 7 7
5 5 4 2 2 4 7 2 1 2 1 1 3 3 3 3 3 2 1 2 3 3 3 3 2 2 2 1 1 1 0 1 2 2 3 4 5 5 5 6 7 7 6 6
4 7 5 4 4 4 5 2 1 2 2 2 2 2 2 1 2 2 1 2 4 4 4 4 3 2 2 2 2 1 0 0 1 2 3 4 4 5 5 6 6 6 5 6
6 5 6 4 4 6 6 4 2 3 2 3 1 1 2 3 1 4 4 3 2 2 1 2 2 0 1 2 2 2 1 1 3 5 4 4 4 5 6 6 5 4 4 5
3 4 4 4 4 6 5 5 1 3 5 3 1 2 1 2 5 5 4 3 2 2 2 1 1 1 2 1 2 2 2 4 5 3 2 3 4 4 5 3 3 3 3 3
3 3 3 4 3 6 4 2 3 5 3 1 2 2 2 3 4 4 3 3 3 3 3 1 0 2 2 1 2 3 4 4 2 2 2 3 3 4 3 3 3 2 3 3
3 5 5 6 6 5 3 3 3 2 1 2 1 3 2 2 3 3 3 4 4 4 4 2 2 3 3 2 3 4 5 3 2 2 2 2 2 2 3 3 3 2 2 3
2 2 3 2 5 4 4 3 2 2 2 3 2 2 1 2 3 3 4 4 4 4 4 3 3 3 4 3 4 5 4 3 3 3 3 2 2 2 2 2 2 3 3 4
4 2 1 3 5 5 5 4 3 2 2 2 3 2 3 2 3 4 4 5 5 5 4 4 4 5 6 5 5 4 4 4 4 3 3 3 2 3 2 2 2 3 4 6
5 6 6 7 7 5 7 6 5 4 5 4 4 4 4 3 4 5 5 5 5 5 5 4 5 5 6 5 5 5 4 5 5 4 3 3 2 2 2 1 1 2 3 5
Wind_Direction
58 77 179 216 196 188 178 179 247 255 222 160 208 229 184 179 187 191 194 196 200 209 202 191 190 189 182 182 182 186 184 183 169 165 172 178 203 215 220 223 223 219 215 210
44 283 232 206 169 155 164 187 267 304 20 142 203 262 206 191 201 202 200 201 205 208 197 194 191 188 188 191 192 190 190 184 183 185 175 174 176 200 211 224 224 221 216 213
181 238 213 145 137 131 187 194 227 232 14 37 60 337 262 220 212 214 213 207 208 209 205 199 195 194 191 195 197 199 194 190 190 181 155 140 104 60 172 224 230 227 218 215
223 257 182 130 212 150 247 224 194 162 97 325 73 281 288 240 225 222 220 213 213 212 206 201 198 197 199 201 197 194 192 192 190 178 175 180 190 205 215 212 219 230 221 218
237 211 163 215 234 174 211 91 108 106 125 65 21 154 288 265 241 237 227 220 218 211 204 200 200 201 200 198 194 195 190 193 190 186 188 189 202 210 207 199 214 231 231 224
241 243 195 212 233 171 139 67 55 52 70 33 253 170 279 246 230 243 228 222 218 209 205 201 198 195 195 192 192 190 189 197 193 191 193 195 199 201 202 211 218 231 235 234
323 314 272 167 115 36 94 90 36 6 12 255 265 190 250 259 243 234 232 220 214 203 197 193 191 193 196 194 194 191 192 200 197 196 201 204 204 201 206 211 215 221 227 231
176 290 262 200 181 181 167 142 157 191 220 271 308 230 254 277 284 259 229 203 193 193 197 199 199 199 199 197 194 192 195 201 199 199 203 203 201 206 212 212 212 216 223 229
177 248 281 238 190 143 135 157 160 138 150 261 282 285 302 304 335 344 181 168 187 199 202 207 204 198 196 196 195 195 195 200 201 201 199 201 203 207 211 209 210 216 223 228
159 221 287 296 82 48 132 139 100 119 149 231 283 280 263 283 288 301 277 214 214 206 204 207 203 197 196 195 195 195 197 199 199 198 203 209 208 207 206 204 211 215 220 223
135 164 305 27 140 177 109 97 105 114 149 162 233 267 235 233 243 232 238 229 214 210 212 208 204 196 187 185 187 193 199 198 198 200 203 206 206 204 202 206 216 217 215 211
126 128 239 272 284 247 152 153 144 151 208 177 184 259 285 246 250 228 231 237 219 211 210 208 191 169 172 181 188 193 198 202 203 200 199 205 204 201 206 213 216 210 209 210
127 113 71 348 344 6 71 104 124 122 122 156 178 257 320 337 329 287 238 246 218 184 140 98 100 146 176 182 192 198 201 205 204 196 198 204 208 209 213 215 215 209 208 209
113 108 160 194 220 213 206 179 146 129 150 197 219 250 301 309 302 296 282 245 181 127 103 101 107 173 194 184 192 203 208 205 200 197 201 207 211 213 215 214 215 215 212 211
95 124 178 215 229 190 196 231 192 184 187 191 227 230 263 268 260 259 276 101 97 105 111 126 140 196 197 185 217 221 216 206 198 199 209 215 214 210 208 208 210 212 213 215
72 130 125 347 330 170 201 266 231 218 195 208 227 257 271 275 280 196 191 150 141 160 160 170 173 191 214 204 227 241 226 216 199 203 212 215 205 202 206 208 207 205 210 211
88 129 126 226 305 53 274 246 221 216 219 188 218 247 287 295 258 226 210 177 180 189 203 215 216 220 229 236 226 227 233 217 189 200 206 206 206 206 208 207 202 207 211 210
133 116 128 145 104 214 239 271 163 154 289 271 250 273 260 257 276 269 221 185 225 218 220 233 238 245 246 242 249 259 166 172 198 211 213 208 202 204 203 203 210 212 207 209
139 135 122 133 178 258 290 278 172 178 277 293 273 303 336 18 39 354 292 234 224 225 224 226 226 225 221 202 186 154 51 249 224 231 230 219 208 210 211 213 217 215 209 213
57 92 117 130 161 219 243 288 298 128 270 300 286 274 342 36 51 279 299 299 286 282 263 246 244 184 181 218 165 141 198 231 238 239 237 225 212 213 217 221 221 212 205 208
43 54 115 154 197 251 265 295 37 170 245 277 246 241 228 216 229 264 298 306 306 306 284 239 196 214 234 216 162 175 213 236 249 255 252 238 221 223 225 220 213 206 199 198
168 149 167 147 182 250 294 33 164 220 255 245 251 265 267 276 293 301 305 305 317 324 317 294 257 278 269 202 172 207 231 236 235 227 229 244 243 236 227 213 213 198 186 198
193 191 186 188 212 251 274 237 254 210 234 265 243 274 270 287 297 306 309 307 306 305 308 303 260 271 278 240 202 221 239 221 195 203 231 246 248 237 213 199 206 201 191 201
278 149 144 254 270 275 288 291 294 250 234 259 261 270 268 274 278 287 297 300 302 303 299 292 270 263 269 260 237 228 229 205 186 205 227 233 229 238 226 209 208 206 211 213
234 170 160 261 276 306 303 278 268 280 281 285 293 274 254 254 277 277 282 285 287 289 290 283 268 261 262 259 252 242 222 189 199 219 226 235 231 227 230 229 236 234 231 219
215 193 194 232 233 222 256 266 269 269 270 264 268 282 276 249 254 267 271 271 275 276 275 276 275 271 272 268 263 258 233 200 199 220 228 223 228 239 233 229 304 300 255 247
Height
1494 1500 1506 1503 1501 1502 1505 1510 1513 1508 1501 1504 1507 1508 1507 1508 1510 1511 1513 1514 1516 1518 1521 1524 1526 1529 1532 1534 1536 1539 1542 1544 1547 1549 1551 1553 1555 1557 1559 1560 1561 1562 1563 1564
1500 1503 1497 1495 1497 1500 1505 1511 1512 1506 1501 1504 1508 1509 1506 1506 1507 1508 1510 1511 1513 1515 1518 1521 1524 1526 1529 1531 1534 1537 1539 1542 1545 1547 1549 1552 1554 1555 1557 1558 1560 1561 1562 1563
1500 1497 1493 1495 1498 1502 1505 1509 1509 1509 1506 1505 1509 1513 1509 1506 1506 1508 1508 1509 1511 1512 1514 1517 1520 1522 1525 1528 1531 1534 1537 1540 1543 1545 1548 1550 1552 1553 1555 1556 1558 1559 1560 1561
1496 1492 1493 1495 1498 1500 1509 1501 1502 1506 1514 1522 1516 1531 1513 1507 1506 1505 1505 1506 1506 1509 1511 1514 1516 1519 1521 1525 1529 1532 1535 1538 1541 1543 1545 1547 1549 1550 1552 1554 1556 1557 1558 1559
1495 1491 1493 1497 1495 1496 1500 1497 1502 1507 1515 1524 1522 1529 1521 1509 1508 1502 1500 1500 1502 1504 1506 1509 1512 1515 1518 1522 1526 1529 1533 1535 1538 1540 1542 1544 1546 1548 1550 1552 1553 1555 1556 1557
1491 1488 1489 1491 1490 1491 1495 1502 1509 1517 1525 1536 1526 1530 1526 1512 1503 1497 1494 1495 1496 1499 1502 1506 1509 1513 1516 1519 1523 1526 1529 1532 1535 1537 1539 1541 1543 1545 1547 1549 1550 1552 1553 1554
1496 1491 1488 1488 1492 1494 1498 1516 1535 1537 1546 1541 1526 1527 1521 1498 1493 1492 1491 1491 1492 1496 1499 1502 1505 1508 1511 1514 1518 1521 1524 1527 1531 1533 1536 1538 1540 1542 1544 1545 1547 1549 1550 1551
1507 1508 1491 1487 1491 1497 1501 1511 1534 1544 1547 1540 1527 1528 1509 1493 1490 1488 1488 1489 1490 1493 1496 1498 1500 1503 1506 1510 1513 1517 1520 1523 1526 1529 1531 1534 1536 1538 1540 1542 1544 1545 1547 1548
1507 1506 1487 1485 1485 1490 1502 1510 1511 1529 1535 1540 1533 1520 1503 1490 1489 1487 1487 1487 1488 1490 1492 1495 1497 1500 1502 1505 1508 1512 1516 1520 1522 1525 1528 1530 1532 1535 1537 1539 1541 1542 1544 1545
1494 1502 1490 1486 1485 1489 1494 1504 1519 1531 1543 1545 1533 1525 1516 1498 1492 1489 1487 1487 1487 1488 1489 1492 1494 1496 1499 1502 1505 1509 1512 1516 1519 1522 1524 1526 1528 1531 1533 1535 1537 1539 1540 1542
1489 1501 1497 1491 1493 1496 1499 1506 1516 1529 1531 1542 1543 1528 1497 1493 1489 1488 1486 1485 1486 1486 1488 1489 1491 1494 1496 1500 1503 1506 1509 1512 1514 1517 1520 1522 1524 1527 1529 1531 1533 1534 1536 1538
1491 1502 1508 1499 1490 1489 1491 1499 1511 1522 1529 1534 1536 1522 1489 1487 1486 1486 1485 1485 1485 1486 1487 1488 1490 1492 1494 1497 1500 1503 1505 1508 1510 1513 1516 1518 1520 1522 1524 1526 1528 1530 1532 1534
1490 1502 1515 1511 1505 1495 1495 1498 1504 1513 1525 1534 1533 1516 1488 1486 1485 1485 1485 1484 1485 1485 1486 1487 1489 1491 1493 1495 1497 1500 1502 1504 1507 1509 1512 1514 1516 1518 1520 1522 1524 1526 1527 1529
1485 1500 1509 1516 1510 1501 1499 1498 1502 1509 1522 1526 1520 1508 1494 1489 1487 1485 1484 1484 1484 1485 1486 1487 1489 1490 1492 1493 1495 1497 1499 1502 1504 1506 1508 1510 1511 1514 1516 1518 1520 1522 1524 1524
1485 1499 1499 1499 1496 1496 1496 1496 1497 1502 1506 1511 1505 1503 1493 1488 1487 1485 1485 1484 1484 1485 1486 1487 1488 1489 1490 1491 1493 1494 1496 1499 1500 1502 1504 1506 1508 1510 1512 1514 1515 1518 1519 1520
1489 1497 1498 1499 1496 1495 1497 1495 1495 1495 1496 1498 1498 1497 1488 1486 1485 1485 1485 1484 1485 1485 1486 1487 1488 1489 1489 1490 1491 1492 1494 1495 1497 1498 1500 1502 1504 1506 1508 1509 1511 1512 1514 1516
1494 1498 1505 1508 1501 1497 1505 1496 1494 1493 1492 1493 1496 1493 1487 1487 1485 1484 1484 1484 1484 1485 1486 1486 1487 1488 1489 1490 1490 1490 1491 1493 1494 1495 1497 1499 1500 1501 1503 1505 1506 1506 1509 1511
1494 1501 1509 1511 1505 1513 1502 1490 1489 1491 1492 1491 1490 1488 1486 1486 1485 1484 1484 1484 1484 1485 1485 1486 1486 1486 1487 1488 1489 1490 1489 1490 1491 1492 1494 1495 1496 1497 1499 1500 1501 1502 1504 1506
1489 1498 1510 1516 1515 1508 1497 1490 1490 1492 1493 1489 1489 1487 1485 1484 1484 1484 1484 1484 1484 1484 1485 1485 1485 1485 1486 1486 1486 1487 1486 1487 1488 1489 1490 1491 1492 1494 1495 1496 1497 1498 1499 1500
1492 1495 1506 1514 1513 1514 1499 1488 1486 1490 1496 1489 1488 1487 1486 1485 1489 1486 1483 1483 1483 1483 1483 1483 1484 1483 1483 1483 1483 1483 1484 1485 1485 1486 1485 1487 1489 1490 1491 1491 1492 1493 1494 1494
1500 1503 1507 1511 1511 1504 1491 1487 1486 1498 1496 1487 1486 1486 1486 1486 1486 1484 1483 1482 1482 1482 1482 1481 1481 1480 1480 1480 1480 1480 1481 1481 1481 1482 1482 1484 1485 1486 1487 1487 1487 1488 1488 1490
1502 1505 1509 1512 1511 1506 1489 1487 1490 1491 1486 1485 1485 1485 1485 1484 1483 1482 1482 1481 1480 1479 1479 1479 1478 1478 1478 1478 1478 1477 1477 1477 1478 1479 1480 1481 1481 1483 1483 1484 1483 1484 1484 1485
1500 1499 1500 1502 1501 1491 1488 1487 1486 1486 1485 1485 1485 1484 1484 1483 1482 1481 1480 1479 1478 1478 1477 1476 1476 1475 1475 1475 1475 1474 1474 1475 1475 1475 1476 1477 1477 1479 1480 1480 1480 1480 1480 1482
1495 1494 1496 1496 1491 1488 1486 1486 1485 1485 1485 1484 1484 1483 1482 1481 1480 1479 1479 1478 1477 1476 1475 1474 1473 1472 1471 1471 1471 1471 1471 1472 1471 1472 1472 1473 1473 1474 1475 1476 1476 1476 1477 1477
1493 1493 1494 1494 1489 1486 1485 1484 1484 1484 1483 1483 1482 1482 1481 1480 1479 1478 1476 1475 1474 1474 1473 1472 1471 1469 1468 1468 1468 1468 1468 1469 1469 1469 1470 1470 1470 1471 1471 1472 1472 1472 1473 1474
1489 1490 1492 1490 1485 1485 1483 1483 1483 1482 1481 1481 1480 1479 1478 1477 1476 1475 1474 1473 1472 1471 1469 1468 1468 1467 1466 1465 1465 1465 1465 1465 1465 1466 1466 1466 1467 1467 1468 1467 1468 1468 1470 1470